TimeEDT,TemperatureF,Dew PointF,Humidity,Sea Level PressureIn,VisibilityMPH,Wind Direction,Wind SpeedMPH,Gust SpeedMPH,PrecipitationIn,Events,Conditions,WindDirDegrees,DateUTC
12:54 AM,35.1,33.1,92,30.16,10.0,Calm,Calm,-,N/A,,Clear,0,2011-10-30 04:54:00
1:54 AM,34.0,32.0,92,30.18,10.0,Calm,Calm,-,N/A,,Clear,0,2011-10-30 05:54:00
2:54 AM,33.1,30.9,92,30.17,10.0,Calm,Calm,-,N/A,,Clear,0,2011-10-30 06:54:00
3:54 AM,32.0,30.9,96,30.19,9.0,Calm,Calm,-,N/A,,Clear,0,2011-10-30 07:54:00
4:54 AM,32.0,30.0,92,30.19,10.0,Calm,Calm,-,N/A,,Clear,0,2011-10-30 08:54:00
5:54 AM,30.9,30.0,96,30.21,9.0,Calm,Calm,-,N/A,,Clear,0,2011-10-30 09:54:00
6:54 AM,30.9,30.0,96,30.24,8.0,Calm,Calm,-,N/A,,Clear,0,2011-10-30 10:54:00
8:54 AM,37.9,35.1,89,30.29,10.0,Calm,Calm,-,N/A,,Clear,0,2011-10-30 12:54:00
9:54 AM,46.9,36.0,66,30.30,10.0,NE,3.5,-,N/A,,Clear,40,2011-10-30 13:54:00
10:54 AM,52.0,35.1,53,30.31,10.0,NE,6.9,-,N/A,,Clear,40,2011-10-30 14:54:00
11:54 AM,54.0,35.1,49,30.32,10.0,East,8.1,-,N/A,,Clear,90,2011-10-30 15:54:00
12:54 PM,57.0,33.1,40,30.30,10.0,NE,6.9,-,N/A,,Clear,50,2011-10-30 16:54:00
1:54 PM,59.0,33.1,38,30.29,10.0,ENE,5.8,-,N/A,,Clear,60,2011-10-30 17:54:00
2:54 PM,59.0,32.0,36,30.27,10.0,Variable,3.5,-,N/A,,Clear,0,2011-10-30 18:54:00
3:54 PM,60.1,33.1,36,30.27,10.0,NNE,4.6,-,N/A,,Clear,20,2011-10-30 19:54:00
4:54 PM,59.0,30.9,35,30.27,10.0,ENE,6.9,-,N/A,,Clear,70,2011-10-30 20:54:00
5:54 PM,55.0,30.9,40,30.27,10.0,ENE,4.6,-,N/A,,Clear,60,2011-10-30 21:54:00
7:54 PM,44.1,39.0,82,30.31,10.0,Calm,Calm,-,N/A,,Clear,0,2011-10-30 23:54:00
8:54 PM,41.0,37.0,86,30.32,10.0,Calm,Calm,-,N/A,,Clear,0,2011-10-31 00:54:00
9:54 PM,39.9,37.0,89,30.34,10.0,Calm,Calm,-,N/A,,Clear,0,2011-10-31 01:54:00
11:54 PM,37.9,35.1,89,30.35,9.0,Calm,Calm,-,N/A,,Clear,0,2011-10-31 03:54:00